This is the latest recevied weather packets stored in our database for station/object F5OWB. If no packets are shown the sender has not sent any weather packets the latest 10 day(s).
| Time | Temp. | Humidity | Pressure | Rain* | Wind** | Luminosity | Snow |
|---|---|---|---|---|---|---|---|
| 1778162405 | 17.22° C | 55% | 1017.6 hPa | 0 mm | - | 663 W/m² | - |
| 1778162344 | 17.22° C | 56% | 1017.6 hPa | 0 mm | - | 666 W/m² | - |
| 1778162289 | 17.22° C | 57% | 1017.6 hPa | 0 mm | - | 675 W/m² | - |
| 1778162224 | 17.22° C | 56% | 1017.6 hPa | 0 mm | - | 679 W/m² | - |
| 1778162162 | 17.22° C | 55% | 1017.7 hPa | 0 mm | - | 682 W/m² | - |
| 1778162102 | 17.22° C | 56% | 1017.7 hPa | 0 mm | - | 670 W/m² | - |
| 1778162042 | 17.22° C | 60% | 1017.7 hPa | 0 mm | - | 680 W/m² | - |
| 1778161987 | 17.22° C | 58% | 1017.7 hPa | 0 mm | - | 691 W/m² | - |
| 1778161923 | 17.22° C | 59% | 1017.7 hPa | 0 mm | - | 693 W/m² | - |
| 1778161864 | 17.22° C | 57% | 1017.7 hPa | 0 mm | - | 694 W/m² | - |
| 1778161799 | 17.22° C | 58% | 1017.7 hPa | 0 mm | - | 698 W/m² | - |
| 1778161741 | 17.22° C | 56% | 1017.7 hPa | 0 mm | - | 700 W/m² | - |
| 1778161677 | 17.22° C | 55% | 1017.6 hPa | 0 mm | - | 701 W/m² | - |
| 1778161619 | 17.22° C | 56% | 1017.7 hPa | 0 mm | - | 700 W/m² | - |
| 1778161618 | 17.22° C | 56% | 1017.7 hPa | 0 mm | - | 700 W/m² | - |
| 1778161557 | 17.22° C | 56% | 1017.7 hPa | 0 mm | - | 700 W/m² | - |
| 1778161500 | 17.22° C | 56% | 1017.7 hPa | 0 mm | - | 700 W/m² | - |
| 1778161438 | 17.22° C | 57% | 1017.7 hPa | 0 mm | - | 705 W/m² | - |
| 1778161384 | 17.22° C | 59% | 1017.7 hPa | 0 mm | - | 705 W/m² | - |
| 1778161317 | 17.22° C | 57% | 1017.6 hPa | 0 mm | - | 705 W/m² | - |
| 1778161257 | 17.22° C | 56% | 1017.7 hPa | 0 mm | - | 705 W/m² | - |
| 1778161198 | 17.22° C | 57% | 1017.7 hPa | 0 mm | - | 705 W/m² | - |
| 1778161136 | 17.78° C | 57% | 1017.7 hPa | 0 mm | - | 708 W/m² | - |
| 1778161070 | 17.78° C | 59% | 1017.7 hPa | 0 mm | - | 710 W/m² | - |
| 1778161010 | 17.78° C | 59% | 1017.7 hPa | 0 mm | - | 712 W/m² | - |
* Rain latest hour (hover to see other rain measurements)
** Current wind speed in m/s (hover to see current wind gust speed)